Garnett Industrial Airport (K68)
Garnett, KS
Field Elevation: 989
Lat: 38°16.64N  Long: 95°12.91W
CTAF/Unicom Freq: 122.8000
   
     For Weather-by-Phone, call 785-448-3254
Weather Advisories
2/27/2015 15:14 Z
Altimeter 30.65" Hg
Wind 050° @ 8 KT
Gusts --
Visibility 10 SM
Temperature -13° C (9° F)
Dewpoint -19° C (-2° F)
Relative Humidity 64%
Density Altitude --
Condensation Altitude 3,800 feet
Wind Chill -20° C (-4° F)
  Wind and Runways
Indicated Runway = 1
History
 
 
More Info
All DigiWx sites map
NOAA Forecast
 
Airport IQ 5010
(FLV) Sherman Airfield
(GRE) Greenville
 
about DigiWx
 
FAA Disclaimer: The data displayed is for advisory purposes only and is not to be used for flight planning or operations. For official data, please call 785-448-3254 to hear the current automated AWOS voice message.
  METAR K68 271514Z AUTO 05008KT 10SM M13/M19 A3065